Tracking 18628 objects as of 25-April-2017
HD Live streaming from Space Station
objects crossing your sky now

CHUBUSAT-1

Track CHUBUSAT-1 now!
10-day predictions
CHUBUSAT-1 is classified as:


NORAD ID: 40300
Int'l Code: 2014-070C
Perigee: 497.7 km
Apogee: 523.8 km
Inclination: 97.4 °
Period: 94.7 minutes
Semi major axis: 6881 km
RCS: Unknown
Launch date: November 6, 2014
Source: Japan (JPN)
Launch site: Orenburg, Russia (OREN)
Uplink (MHz): 145.980
Downlink (MHz): 437.485
Beacon (MHz): 437.485
Mode: 1200bps 9600bps CW
Call sign: JJ2YJY
Status: Inactive


CHUBUSAT-1 is a 110-pound (50-kg) satellite that was designed by Nagoya University in Japan and carries optical and infrared cameras to observe Earth and space debris.
Your satellite tracking list
Your tracking list is empty





NASA's NSSDC Master Catalog

Two Line Element Set (TLE):
1 40300U 14070C   17113.87723067 +.00001818 +00000-0 +85421-4 0  9994
2 40300 097.3970 194.7649 0018994 294.0052 178.4998 15.20739240136534
Source of the keplerian elements: Caltech